Wind_Speed
28 28 27 27 27 27 26 24 23 21 19 17 18 17 15 13 13 12 12 12 11 9 9 9 10 10 10 10 10 10 11 11 12 13 13 14 14 15 16 15 15 16 16 17
28 29 28 28 28 27 25 24 23 22 19 17 17 16 14 13 12 13 12 12 12 11 11 11 10 10 10 11 10 11 11 12 12 12 12 13 14 15 15 15 16 16 16 16
27 28 29 29 28 27 25 23 22 20 18 18 17 15 14 13 12 12 13 12 11 10 11 11 11 10 10 10 11 12 12 13 13 12 12 13 13 13 15 15 15 16 16 16
26 27 30 27 26 25 24 22 20 18 18 17 16 15 14 13 12 12 12 11 11 11 10 11 11 11 10 11 12 12 13 13 13 13 13 13 14 15 16 16 16 16 16 17
27 27 27 26 25 24 24 22 20 19 19 18 16 15 14 13 13 12 12 12 10 10 10 10 10 10 11 12 12 13 13 14 14 13 14 14 14 15 16 16 16 17 17 18
28 27 27 25 23 23 23 22 21 20 19 19 18 16 15 15 14 14 14 12 11 11 10 11 11 11 12 12 12 13 13 14 15 15 15 15 15 16 16 17 17 17 18 18
30 29 27 25 24 23 23 21 21 20 19 19 19 18 17 16 15 15 15 13 12 12 12 12 12 12 12 13 14 14 14 15 14 15 15 16 16 16 17 17 17 18 18 19
32 30 29 25 24 24 22 21 21 20 19 19 19 18 17 17 16 16 16 15 14 13 13 13 13 14 14 14 15 16 16 16 16 16 16 17 17 17 18 18 19 19 19 19
34 31 28 26 26 25 23 22 20 20 19 19 19 19 18 18 18 18 17 17 17 15 14 14 14 14 15 15 16 17 17 17 17 17 17 18 18 18 19 19 19 20 20 20
34 31 30 27 26 26 24 23 22 21 21 21 20 20 20 18 19 19 18 18 17 17 15 15 16 16 16 16 17 18 18 19 19 19 19 19 19 19 20 20 20 21 21 21
34 32 31 29 27 27 25 24 24 22 22 22 21 21 20 19 19 19 18 18 16 16 16 16 16 17 17 18 19 19 19 20 20 20 20 21 21 21 21 21 21 21 21 21
34 33 31 30 29 28 27 25 24 24 24 23 22 22 21 20 19 19 19 18 17 17 18 18 18 19 19 19 20 20 20 21 21 21 21 22 22 22 22 22 22 22 22 22
33 32 32 30 30 29 28 27 27 26 25 25 24 23 22 22 21 21 20 19 19 18 19 19 20 20 21 21 21 21 21 21 22 22 22 22 22 22 22 23 23 23 23 24
31 31 31 30 29 28 27 27 27 25 24 23 24 23 22 22 21 21 21 22 21 20 20 20 20 21 22 22 22 22 22 22 22 22 22 22 23 23 23 23 24 24 25 26
30 30 30 30 29 27 27 26 26 25 25 24 23 23 22 22 22 22 22 22 21 20 20 21 21 22 22 22 22 22 22 23 23 22 23 23 23 24 24 25 25 25 26 26
28 28 28 28 27 26 26 26 26 25 25 25 24 23 22 21 22 22 22 22 22 21 21 21 22 22 22 22 22 23 23 23 23 23 24 24 24 25 25 25 26 26 27 27
26 26 26 27 26 26 26 26 26 25 24 23 23 22 22 21 21 21 22 22 22 21 21 21 21 21 22 22 23 23 23 23 23 23 24 25 26 26 26 26 27 27 27 27
26 26 26 26 26 26 25 25 24 23 23 22 22 22 21 21 21 21 20 20 20 20 20 20 21 21 22 22 22 23 23 23 23 24 25 26 26 26 26 26 26 26 26 26
26 26 25 24 25 24 23 23 22 21 21 21 21 21 21 21 21 20 20 20 20 20 20 20 20 21 21 21 21 22 22 23 23 24 25 25 24 25 25 26 25 25 26 26
24 24 24 24 23 22 22 21 21 21 21 21 20 20 21 20 20 20 20 20 20 20 20 20 20 20 20 20 20 21 21 22 23 23 23 23 24 25 25 25 25 25 26 26
23 23 24 23 22 21 21 21 21 21 20 20 20 19 19 19 19 18 18 18 19 19 19 19 19 19 19 20 20 20 21 22 22 21 22 22 23 23 24 24 25 25 26 26
23 23 23 22 22 20 20 21 20 20 20 19 18 18 17 17 17 17 17 17 17 18 18 18 18 18 18 18 19 19 19 20 20 20 21 21 21 22 23 24 25 25 25 26
21 21 21 20 19 19 19 19 19 19 19 18 18 17 17 17 16 16 16 16 16 16 16 15 15 16 16 16 17 18 18 18 19 20 21 21 22 22 23 24 24 24 25 26
20 20 19 18 17 17 17 16 16 16 17 17 16 16 16 15 15 15 14 14 14 14 13 14 14 14 15 15 16 17 18 18 19 19 20 21 22 23 24 24 25 25 25 26
19 18 18 17 17 17 16 15 15 15 15 15 15 15 15 14 13 13 13 13 13 14 14 14 15 15 15 16 18 18 18 19 19 20 21 22 23 24 25 25 26 26 26 26
18 18 17 16 16 16 16 16 15 15 14 14 14 13 13 12 12 12 13 13 13 14 15 15 15 16 17 17 18 18 19 20 22 23 24 24 25 25 26 26 26 26 26 26
17 16 16 16 16 16 15 15 14 13 13 13 12 12 12 12 12 13 13 14 14 15 15 16 16 17 17 17 18 20 21 22 23 24 25 25 25 26 26 27 27 27 27 27
Wind_Direction
217 219 223 227 229 232 236 241 244 246 248 245 245 253 262 267 267 267 265 262 266 271 269 268 267 269 274 279 284 290 291 289 283 280 276 274 272 270 270 272 272 274 274 273
216 217 221 224 225 229 233 238 242 244 244 243 244 251 258 261 267 267 264 259 265 270 268 264 266 269 273 278 284 290 293 293 290 285 282 281 278 272 270 271 273 274 276 278
216 217 221 224 226 229 233 236 240 243 242 244 244 247 253 258 268 268 266 261 265 272 268 261 263 270 277 281 287 290 291 292 291 289 288 284 281 276 273 271 273 274 276 277
217 219 224 226 229 231 233 235 238 241 240 242 242 244 250 253 257 267 269 263 262 267 269 265 268 276 280 285 288 289 288 289 290 288 287 284 284 280 276 276 275 278 278 278
222 224 228 228 229 231 234 236 239 240 238 239 243 245 248 253 255 262 266 265 261 265 270 269 273 276 279 282 287 289 288 287 288 288 286 287 286 286 282 281 279 278 281 281
228 230 231 231 233 233 233 236 238 239 239 241 244 247 251 254 257 261 264 264 265 269 275 277 279 280 280 282 285 289 291 288 289 288 291 290 289 288 287 285 283 280 280 283
232 234 235 234 234 234 235 237 238 240 240 241 243 247 248 250 253 257 258 260 263 269 279 282 280 281 281 283 285 289 292 292 290 290 291 290 289 288 289 288 286 285 283 285
234 235 237 235 236 236 236 235 238 240 239 240 244 247 249 251 252 254 254 257 260 264 275 281 282 281 281 284 286 288 291 292 292 292 291 291 290 288 287 286 285 284 285 287
233 235 238 237 238 237 235 235 237 238 239 242 244 247 252 255 254 250 252 256 259 264 271 277 280 281 282 284 286 288 290 291 292 291 291 292 291 289 286 284 284 284 285 286
234 235 237 238 236 237 237 237 238 239 242 244 248 250 251 255 256 251 250 257 260 263 268 274 276 276 279 282 284 287 289 290 290 289 289 289 289 289 289 287 285 284 285 286
234 236 236 235 235 236 236 238 241 243 244 245 247 249 252 257 258 252 251 258 264 266 267 272 273 274 277 280 283 285 288 289 290 290 290 289 289 289 288 287 287 287 287 288
231 232 233 234 235 236 238 241 243 246 249 248 249 251 255 256 257 256 255 257 263 268 270 272 273 275 277 279 281 283 285 286 287 288 288 287 287 288 287 286 286 287 288 288
229 230 230 232 233 235 235 239 242 245 248 247 248 250 251 255 256 256 256 257 262 266 269 270 272 275 277 279 281 282 283 285 285 286 285 285 285 286 286 286 287 289 289 289
228 228 228 229 230 233 236 239 239 241 244 245 245 248 252 254 254 252 255 260 262 263 265 269 272 275 277 278 280 280 282 284 285 284 283 284 285 286 286 287 288 288 289 289
224 225 227 227 231 233 236 236 238 241 243 243 244 247 250 252 254 256 259 262 261 262 265 269 272 274 276 278 279 281 282 283 283 282 282 283 284 285 286 287 287 288 290 290
222 224 226 228 230 231 233 237 240 242 242 243 244 247 250 253 255 258 259 260 261 262 264 268 271 274 275 277 280 281 281 281 281 281 283 284 286 286 287 287 287 288 289 290
223 225 225 226 229 231 235 239 239 239 240 241 245 248 250 253 255 257 258 260 261 261 264 268 271 274 276 277 279 279 280 280 281 283 284 285 286 286 286 287 289 290 291 291
223 223 223 224 227 229 233 236 237 239 241 243 245 248 250 253 256 256 258 258 259 262 265 269 272 275 276 277 278 279 279 281 283 283 285 286 286 286 288 290 291 292 292 292
221 222 223 224 225 228 231 233 235 236 238 239 243 246 249 252 253 255 258 258 260 262 266 269 272 275 276 278 279 280 282 284 284 285 285 285 286 288 290 292 292 291 291 292
217 219 221 223 226 227 230 232 233 235 237 238 242 246 246 248 252 254 255 256 258 262 265 267 271 272 274 277 280 283 285 286 286 287 286 286 288 290 291 292 292 293 293 293
216 218 221 224 226 226 227 229 230 232 233 235 240 243 244 246 250 252 254 256 258 260 262 266 269 269 272 277 281 284 285 287 289 288 289 289 291 293 294 294 294 294 294 295
213 214 216 219 222 224 224 225 226 227 230 235 239 242 245 247 248 250 253 256 259 259 261 264 268 270 274 278 284 287 290 290 291 291 293 293 294 296 298 298 297 296 297 299
209 212 215 217 218 219 219 221 223 226 231 235 238 241 244 246 246 248 251 256 257 257 260 265 270 274 277 281 285 289 291 293 295 297 298 299 299 299 300 301 301 302 303 304
203 205 207 207 208 212 215 217 220 223 227 230 234 237 239 240 242 248 252 252 251 255 261 267 273 278 281 286 290 292 294 297 299 301 302 303 303 302 301 301 302 304 305 305
199 202 204 205 206 209 211 214 218 220 224 228 231 235 237 241 244 246 248 251 255 261 266 270 274 279 283 288 290 292 294 298 300 302 303 303 303 303 303 304 304 304 304 304
197 200 202 205 208 208 210 212 215 219 223 227 231 234 236 239 243 248 251 255 259 263 267 272 277 282 285 287 289 293 297 299 301 302 303 303 304 305 305 305 305 305 305 305
195 197 200 205 208 209 210 212 215 217 221 225 228 231 237 244 250 252 255 259 264 267 271 276 281 285 287 290 293 296 300 302 303 303 304 304 304 305 305 304 304 305 306 306
Height
5816 5820 5824 5828 5832 5835 5838 5842 5845 5848 5851 5854 5855 5857 5858 5858 5859 5859 5859 5860 5860 5860 5860 5859 5859 5860 5859 5859 5858 5857 5856 5855 5854 5853 5853 5853 5853 5853 5853 5853 5852 5852 5851 5851
5811 5815 5819 5822 5826 5830 5834 5837 5840 5843 5847 5849 5851 5853 5854 5855 5855 5856 5856 5856 5857 5856 5856 5857 5857 5857 5856 5856 5855 5854 5853 5852 5851 5850 5849 5849 5849 5849 5849 5848 5848 5848 5847 5847
5808 5811 5814 5818 5822 5826 5829 5833 5836 5839 5844 5845 5847 5849 5850 5851 5852 5852 5852 5852 5853 5853 5853 5854 5854 5854 5853 5853 5852 5852 5851 5850 5848 5847 5846 5845 5845 5845 5845 5844 5844 5844 5843 5843
5803 5808 5811 5818 5819 5822 5826 5829 5832 5836 5839 5841 5844 5845 5847 5848 5849 5849 5849 5849 5849 5849 5850 5850 5850 5850 5850 5849 5849 5849 5848 5847 5846 5845 5843 5842 5842 5841 5841 5840 5840 5839 5839 5838
5799 5802 5807 5812 5815 5818 5822 5825 5829 5832 5835 5837 5839 5841 5843 5844 5845 5846 5846 5846 5846 5846 5846 5846 5847 5846 5846 5846 5846 5845 5844 5844 5843 5842 5841 5840 5839 5838 5836 5836 5835 5835 5834 5834
5794 5798 5802 5808 5811 5814 5818 5821 5825 5827 5830 5832 5835 5837 5840 5840 5841 5842 5842 5843 5843 5843 5843 5843 5843 5843 5842 5842 5842 5842 5841 5840 5839 5838 5837 5836 5835 5834 5833 5832 5831 5830 5830 5829
5789 5793 5798 5803 5806 5810 5815 5818 5820 5823 5826 5828 5831 5834 5835 5836 5837 5838 5838 5839 5839 5839 5839 5839 5839 5839 5839 5839 5839 5838 5837 5837 5836 5834 5833 5832 5831 5830 5829 5828 5827 5826 5825 5824
5783 5788 5795 5798 5801 5806 5809 5812 5815 5818 5821 5824 5826 5828 5830 5831 5832 5833 5834 5834 5835 5835 5834 5835 5835 5835 5835 5835 5835 5834 5834 5833 5831 5830 5829 5828 5827 5826 5824 5823 5822 5822 5820 5819
5779 5785 5789 5793 5796 5800 5803 5807 5810 5813 5816 5819 5821 5824 5825 5827 5828 5829 5829 5830 5831 5830 5831 5831 5831 5831 5831 5831 5830 5830 5829 5828 5827 5826 5825 5824 5822 5821 5820 5819 5818 5816 5815 5814
5773 5778 5782 5787 5791 5794 5798 5802 5805 5808 5811 5814 5816 5818 5820 5821 5823 5824 5825 5826 5826 5826 5826 5826 5826 5826 5826 5826 5826 5825 5824 5823 5822 5821 5820 5819 5817 5816 5815 5813 5812 5811 5810 5809
5766 5772 5776 5781 5785 5789 5793 5796 5799 5802 5805 5808 5810 5813 5815 5816 5817 5818 5820 5821 5821 5821 5822 5822 5822 5822 5821 5821 5821 5820 5819 5818 5817 5816 5814 5813 5812 5811 5810 5808 5807 5805 5804 5803
5760 5766 5771 5775 5779 5783 5787 5791 5794 5797 5800 5802 5804 5807 5809 5811 5812 5813 5814 5815 5816 5816 5816 5817 5817 5816 5816 5816 5815 5815 5814 5813 5811 5810 5809 5808 5807 5805 5804 5803 5801 5799 5798 5797
5754 5759 5764 5768 5773 5777 5781 5785 5788 5791 5794 5796 5798 5801 5803 5805 5806 5807 5808 5809 5810 5811 5811 5811 5811 5811 5810 5810 5809 5809 5808 5807 5806 5804 5803 5802 5801 5799 5798 5797 5795 5794 5792 5791
5747 5752 5757 5762 5767 5771 5775 5778 5781 5784 5787 5790 5792 5795 5797 5799 5800 5802 5803 5804 5804 5805 5805 5805 5805 5805 5805 5804 5803 5803 5802 5801 5800 5798 5797 5796 5795 5793 5792 5790 5789 5787 5786 5784
5741 5746 5751 5756 5761 5765 5768 5772 5775 5778 5781 5783 5786 5788 5790 5792 5794 5795 5796 5797 5798 5798 5799 5799 5799 5799 5798 5798 5797 5796 5795 5794 5793 5792 5791 5790 5788 5787 5785 5784 5782 5781 5779 5777
5735 5740 5746 5751 5755 5759 5762 5765 5768 5772 5775 5777 5779 5782 5784 5786 5787 5788 5790 5791 5792 5792 5792 5792 5792 5792 5791 5791 5790 5790 5789 5788 5787 5785 5784 5783 5781 5780 5778 5777 5775 5774 5772 5770
5730 5735 5740 5744 5749 5753 5756 5759 5762 5765 5768 5771 5773 5775 5777 5779 5781 5782 5783 5784 5785 5785 5785 5786 5786 5785 5785 5784 5784 5783 5782 5781 5780 5778 5777 5776 5774 5773 5771 5770 5768 5766 5764 5762
5725 5730 5734 5739 5743 5747 5750 5753 5756 5759 5762 5764 5767 5769 5771 5773 5774 5776 5777 5777 5778 5779 5779 5779 5779 5779 5778 5778 5777 5776 5775 5774 5773 5772 5770 5769 5767 5766 5764 5762 5760 5758 5756 5754
5720 5725 5729 5733 5737 5741 5744 5747 5750 5753 5756 5758 5761 5763 5765 5767 5768 5770 5770 5771 5772 5772 5773 5773 5772 5772 5771 5771 5770 5769 5768 5767 5766 5765 5763 5762 5760 5759 5757 5755 5753 5751 5749 5747
5715 5720 5724 5728 5732 5736 5739 5742 5745 5748 5750 5753 5755 5757 5759 5761 5762 5763 5764 5765 5766 5766 5766 5766 5766 5766 5765 5765 5764 5763 5761 5760 5759 5758 5756 5755 5753 5752 5750 5748 5746 5744 5742 5740
5711 5715 5719 5723 5727 5730 5734 5737 5740 5743 5745 5747 5750 5752 5753 5755 5756 5757 5758 5758 5759 5760 5760 5760 5760 5760 5759 5759 5758 5756 5755 5754 5753 5751 5750 5748 5747 5745 5743 5741 5739 5737 5735 5733
5707 5711 5715 5719 5722 5726 5729 5732 5735 5737 5740 5742 5744 5746 5748 5749 5750 5751 5752 5753 5753 5754 5755 5755 5755 5754 5753 5753 5752 5751 5750 5748 5747 5746 5744 5742 5740 5739 5737 5735 5732 5730 5728 5725
5703 5707 5711 5715 5718 5721 5724 5727 5730 5732 5735 5737 5739 5741 5743 5744 5745 5746 5747 5748 5748 5749 5749 5749 5749 5749 5748 5747 5746 5746 5744 5743 5742 5740 5738 5736 5734 5732 5730 5728 5726 5723 5721 5718
5700 5704 5708 5711 5715 5718 5721 5723 5726 5728 5730 5733 5735 5737 5738 5739 5740 5741 5742 5743 5744 5744 5745 5745 5745 5744 5744 5743 5742 5741 5740 5738 5737 5735 5733 5731 5729 5726 5724 5722 5719 5717 5714 5711
5698 5702 5705 5709 5712 5715 5718 5720 5723 5725 5727 5729 5731 5733 5734 5735 5736 5737 5738 5739 5739 5740 5740 5740 5740 5739 5739 5738 5737 5736 5735 5733 5732 5730 5728 5726 5723 5721 5718 5716 5713 5710 5707 5704
5696 5700 5703 5706 5709 5712 5715 5718 5720 5722 5724 5726 5727 5729 5730 5731 5732 5733 5734 5735 5735 5736 5736 5736 5735 5735 5734 5733 5732 5731 5729 5728 5726 5724 5722 5719 5717 5714 5712 5709 5706 5703 5700 5697
5695 5698 5701 5704 5707 5710 5712 5715 5717 5719 5721 5722 5724 5725 5726 5728 5729 5730 5730 5731 5731 5731 5731 5731 5730 5730 5729 5728 5727 5725 5724 5722 5720 5717 5715 5713 5710 5707 5705 5702 5699 5696 5693 5690